Zurück zum Katalog

DELTA 1 DEB

AktivSSO
NORAD 12171·DEBRIS·🇺🇸 United States

Gestartet Mar 5, 1978 von Vandenberg Space Force Base

Loading…

Nächste Überflüge (nächste 24 Stunden)

TLE

AktuellSource: Space-Track

Epoche: Sep 14, 2026, 07:21 UTC

1 12171U 78026L   26257.30646131 -.00000080  00000-0 -20884-4 0  9997
2 12171  99.2340 277.0597 0036219 228.3409 197.0218 14.04097710334952

Verfolge DELTA 1 DEB in Echtzeit mit AllMySat

Download on the App Store